Weather in Yemtsa

Russia / Arkhangel'skaya Oblast'     63°04′18″N   40°20′02″E
temp.,
°C
wind,
m/s
gust,
m/s
humid.,
%
clouds,
%
prec.,
mm/h
press.,
hPa
HPBL,
m
18 april, sun
sun1800:00+2nne29915 0.0 1031187
03:000nne27966 0.0 1033172
06:00+1ene379197 0.0 1034447
09:00+2ene35625 0.0 1035736
12:00+5ene34455 0.0 10351111
15:00+6ene34391 0.0 10351347
18:00+5e24470 0.0 1035748
21:00+1ene23660 0.0 103649
19 april, mon
mon1900:00−1e22704 0.0 103724
03:00−1ese22725 0.0 103719
06:000ese12695 0.0 103760
09:00+4se23485 0.0 1037650
12:00+7se223998 0.0 10361327
15:00+7se2238100 0.0 10351371
18:00+7se23485 0.0 1034135
21:00+2se22644 0.0 103510
20 april, tue
tue2000:000sse22700 0.0 103515
03:00−1s22740 0.0 103513
06:000sse14710 0.0 1034104
09:00+6s24490 0.0 1033616
12:00+8sse34390 0.0 10321332
15:00+10sse35340 0.0 10301511
18:00+9sse36410 0.0 1028527
21:00+4se26625 0.0 1028100
21 april, wed
wed2100:00+2se286858 0.0 1027168
03:00+1se2872100 0.0 1026160
06:00+1ese31070100 0.0 1024260
09:00+5ese51251100 0.0 1021749
12:00+8ese51241100 0.0 10181136
15:00+8se51344100 0.0 10151511
18:00+4se51483100 0.6 10141244
21:00+3se51294100 0.9 10121041
22 april, thu
thu2200:00+3se41297100 1.0 1010908
03:00+3se41197100 1.5 1009812
06:00+3sse41197100 0.8 1009868
09:00+3sse41196100 1.0 1009822
12:00+3s3997100 2.1 1009810
15:00+4ssw4990100 2.4 10111045
18:00+3ssw51096100 0.3 1013837
21:00+2sw51096100 0.8 1016773